Apalachicola, FL

6:24 AM EDT on August 19, 2017 (GMT -0400)
Apalachicola Municipal

Weather History for KAAF - May, 2013

Change the Weather History Date:

Wednesday, May 1, 2013

  Actual Average Record
Temperature  
Mean Temperature 73 °F 70 °F  
Max Temperature 75 °F 81 °F 89 °F (1943)
Min Temperature 70 °F 60 °F 51 °F (1996)
Degree Days  
Heating Degree Days 0    
Month to date heating degree days 0  
Since 1 July heating degree days 1120  
Cooling Degree Days 8    
Month to date cooling degree days 8  
Year to date cooling degree days 205  
Growing Degree Days 22 (Base 50)    
Moisture  
Dew Point 66 °F    
Average Humidity 79    
Maximum Humidity 84    
Minimum Humidity 73    
Precipitation  
Precipitation 0.18 in 0.07 in 2.59 in (2005)
Month to date precipitation 0.18 0.07  
Year to date precipitation 18.08 16.95  
Sea Level Pressure  
Sea Level Pressure 29.97 in    
Wind  
Wind Speed 12 mph (East)    
Max Wind Speed 20 mph    
Max Gust Speed 29 mph    
Visibility 10 miles    
Events Rain    
T = Trace of Precipitation, MM = Missing Value Source: NWS Daily Summary

Daily Weather History Graph

Daily Weather History Graph

Search for Another Location

Airport or City:

Trip Planner

Search our weather history database for the weather conditions in past years. The results will help you decide how hot, cold, wet, or windy it might be!

Date:

Astronomy

May. 01, 2013 Rise Set
Actual Time 6:57 AM EDT 8:17 PM EDT
Civil Twilight 6:32 AM EDT 8:42 PM EDT
Nautical Twilight 6:02 AM EDT 9:12 PM EDT
Astronomical Twilight 5:30 AM EDT 9:44 PM EDT
Moon 1:24 AM EDT (5/1) 12:34 PM EDT (5/1)
Length of Visible Light 14h 10m
Length of Day
13h 19m
Waning Gibbous, 59% of the Moon is Illuminated
May 1
Waning Gibbous
May 2
Last Quarter
May 9
New
May 18
First Quarter
May 25
Full

Hourly Weather History & Observations

Time (EDT) Temp. Dew Point Humidity Pressure Visibility Wind Dir Wind Speed Gust Speed Precip Events Conditions
12:53 AM 73.0 °F 68.0 °F 84% 29.96 in 10.0 mi East 3.5 mph - N/A   Overcast
1:53 AM 73.9 °F 66.9 °F 79% 29.96 in 10.0 mi East 8.1 mph - N/A   Mostly Cloudy
2:53 AM 73.9 °F 68.0 °F 82% 29.93 in 10.0 mi ESE 9.2 mph 17.3 mph N/A   Clear
3:53 AM 73.0 °F 66.9 °F 81% 29.93 in 10.0 mi ESE 11.5 mph 17.3 mph N/A   Scattered Clouds
4:00 AM 73.4 °F 66.2 °F 78% 29.93 in 10.0 mi ESE 11.5 mph 20.7 mph N/A   Mostly Cloudy
4:53 AM 72.0 °F 68.0 °F 87% 29.94 in 10.0 mi ESE 9.2 mph - 0.01 in Rain Light Rain
5:53 AM 72.0 °F 66.9 °F 84% 29.93 in 10.0 mi East 11.5 mph 17.3 mph 0.00 in   Overcast
6:04 AM 71.6 °F 66.2 °F 83% 29.93 in 10.0 mi East 8.1 mph 17.3 mph N/A   Overcast
6:37 AM 73.4 °F 66.2 °F 78% 29.94 in 10.0 mi ESE 11.5 mph - N/A   Overcast
6:46 AM 73.4 °F 66.2 °F 78% 29.94 in 10.0 mi East 11.5 mph 18.4 mph N/A   Overcast
6:53 AM 73.0 °F 66.9 °F 81% 29.94 in 10.0 mi East 11.5 mph 18.4 mph N/A   Overcast
7:53 AM 73.0 °F 66.9 °F 81% 29.95 in 10.0 mi East 10.4 mph 18.4 mph N/A   Overcast
8:19 AM 73.4 °F 66.2 °F 78% 29.95 in 10.0 mi East 13.8 mph 23.0 mph N/A   Overcast
8:53 AM 73.0 °F 66.9 °F 81% 29.97 in 10.0 mi East 13.8 mph 21.9 mph N/A   Overcast
9:53 AM 73.0 °F 64.9 °F 76% 29.98 in 10.0 mi East 12.7 mph 21.9 mph N/A   Overcast
10:53 AM 73.0 °F 64.9 °F 76% 30.00 in 10.0 mi ESE 16.1 mph 23.0 mph N/A   Mostly Cloudy
11:34 AM 73.4 °F 64.4 °F 73% 30.00 in 10.0 mi East 11.5 mph 23.0 mph N/A   Mostly Cloudy
11:53 AM 72.0 °F 64.0 °F 76% 30.00 in 10.0 mi East 16.1 mph 24.2 mph N/A   Overcast
12:53 PM 70.0 °F 66.0 °F 87% 30.00 in 9.0 mi East 12.7 mph 23.0 mph 0.02 in Rain Light Rain
1:26 PM 71.6 °F 66.2 °F 83% 29.99 in 9.0 mi East 13.8 mph 20.7 mph 0.00 in   Overcast
1:53 PM 71.1 °F 66.0 °F 84% 29.99 in 10.0 mi East 11.5 mph - 0.00 in   Overcast
2:53 PM 72.0 °F 66.0 °F 81% 29.98 in 10.0 mi East 11.5 mph 17.3 mph N/A   Overcast
3:05 PM 71.6 °F 66.2 °F 83% 29.98 in 1.8 mi East 8.1 mph - 0.05 in Rain Heavy Rain
3:19 PM 71.6 °F 66.2 °F 83% 29.97 in 2.5 mi East 11.5 mph 18.4 mph 0.14 in Rain Rain
3:26 PM 71.6 °F 66.2 °F 83% 29.97 in 5.0 mi East 9.2 mph - 0.15 in Rain Light Rain
3:53 PM 71.1 °F 66.9 °F 87% 29.96 in 10.0 mi East 12.7 mph - 0.15 in   Overcast
4:13 PM 71.6 °F 66.2 °F 83% 29.96 in 10.0 mi ENE 10.4 mph - N/A   Overcast
4:27 PM 71.6 °F 66.2 °F 83% 29.96 in 10.0 mi ENE 6.9 mph - N/A   Overcast
4:53 PM 71.1 °F 66.0 °F 84% 29.96 in 10.0 mi ENE 11.5 mph 19.6 mph N/A   Overcast
5:53 PM 72.0 °F 66.0 °F 81% 29.96 in 10.0 mi ENE 12.7 mph 20.7 mph N/A   Overcast
6:05 PM 71.6 °F 66.2 °F 83% 29.95 in 10.0 mi ENE 12.7 mph 20.7 mph N/A   Overcast
6:53 PM 73.0 °F 66.0 °F 79% 29.95 in 10.0 mi ENE 11.5 mph 18.4 mph N/A   Overcast
7:53 PM 73.0 °F 66.0 °F 79% 29.96 in 10.0 mi ENE 13.8 mph 20.7 mph N/A   Overcast
8:53 PM 72.0 °F 66.9 °F 84% 29.98 in 10.0 mi East 10.4 mph 19.6 mph N/A   Overcast
9:53 PM 73.0 °F 64.9 °F 76% 29.97 in 10.0 mi East 18.4 mph 26.5 mph N/A   Mostly Cloudy
10:04 PM 73.4 °F 64.4 °F 73% 29.98 in 10.0 mi East 15.0 mph 27.6 mph N/A   Mostly Cloudy
10:53 PM 73.0 °F 64.9 °F 76% 29.99 in 10.0 mi East 15.0 mph 21.9 mph N/A   Mostly Cloudy
11:27 PM 71.6 °F 64.4 °F 78% 29.99 in 10.0 mi East 13.8 mph 24.2 mph N/A   Mostly Cloudy
11:36 PM 71.6 °F 64.4 °F 78% 29.99 in 10.0 mi East 12.7 mph 23.0 mph N/A   Mostly Cloudy
11:53 PM 72.0 °F 64.9 °F 78% 30.00 in 10.0 mi East 15.0 mph 23.0 mph N/A   Overcast